User: anonymous   Login
Location: Muenchen
(48.1800°N, 11.5800°E)
Time: 02:49:50
(UTC+02:00)
Language:

Cosmos 2233 Rocket - Orbit

View from above orbital plane
View from above orbital plane
View from above satellite
View from above satellite

Ground track
Ground track

The orbit data is extracted from the following two-line orbital elements,

1 22488U 93008B   17207.14183998 -.00000044 +00000-0 -59957-4 0  9993
2 22488 082.9406 049.4481 0026628 114.7615 024.7821 13.77720818229331
Epoch (UTC): 26 July 2017 03:24:14
Eccentricity: 0.0026628
inclination: 82.9406°
perigee height: 952 km
apogee height: 991 km
right ascension of ascending node: 49.4481°
argument of perigee: 114.7615°
revolutions per day: 13.77720818
mean anomaly at epoch: 24.7821°
orbit number at epoch: 22933

The dashed part of the orbit path shows where the satellite is in the earth's shadow,  

DLR